Year,Month,Day,Hour,Minute,Value (Times are PST for temperature in C)
2021,07,01,00,00,19.10
2021,07,01,00,01,19.10
2021,07,01,00,02,19.10
2021,07,01,00,03,19.10
2021,07,01,00,04,19.10
2021,07,01,00,05,19.10
2021,07,01,00,06,19.10
2021,07,01,00,07,19.10
2021,07,01,00,08,19.10
2021,07,01,00,09,19.10
2021,07,01,00,10,19.10
2021,07,01,00,11,19.10
2021,07,01,00,12,19.10
2021,07,01,00,13,19.10
2021,07,01,00,14,19.10
2021,07,01,00,15,19.10
2021,07,01,00,16,19.10
2021,07,01,00,17,19.10
2021,07,01,00,18,19.10
2021,07,01,00,19,19.10
2021,07,01,00,20,19.10
2021,07,01,00,21,19.10
2021,07,01,00,22,19.10
2021,07,01,00,23,19.10
2021,07,01,00,24,19.10
2021,07,01,00,25,19.10
2021,07,01,00,26,19.10
2021,07,01,00,27,19.10
2021,07,01,00,28,19.10
2021,07,01,00,29,19.00
2021,07,01,00,30,19.00
2021,07,01,00,31,19.00
2021,07,01,00,32,19.00
2021,07,01,00,33,19.00
2021,07,01,00,34,18.90
2021,07,01,00,35,18.90
2021,07,01,00,36,18.90
2021,07,01,00,37,18.90
2021,07,01,00,38,18.90
2021,07,01,00,39,18.90
2021,07,01,00,40,18.90
2021,07,01,00,41,18.90
2021,07,01,00,42,18.90
2021,07,01,00,43,18.80
2021,07,01,00,44,18.80
2021,07,01,00,45,18.80
2021,07,01,00,46,18.80
2021,07,01,00,47,18.80
2021,07,01,00,48,18.80
2021,07,01,00,49,18.80
2021,07,01,00,50,18.80
2021,07,01,00,51,18.80
2021,07,01,00,52,18.80
2021,07,01,00,53,18.80
2021,07,01,00,54,18.80
2021,07,01,00,55,18.80
2021,07,01,00,56,18.80
2021,07,01,00,57,18.80
2021,07,01,00,58,18.80
2021,07,01,00,59,18.80
2021,07,01,01,00,18.80
2021,07,01,01,01,18.80
2021,07,01,01,02,18.80
2021,07,01,01,03,18.90
2021,07,01,01,04,18.90
2021,07,01,01,05,18.90
2021,07,01,01,06,18.90
2021,07,01,01,07,18.90
2021,07,01,01,08,18.90
2021,07,01,01,09,18.90
2021,07,01,01,10,18.90
2021,07,01,01,11,18.90
2021,07,01,01,12,18.90
2021,07,01,01,13,18.90
2021,07,01,01,14,18.90
2021,07,01,01,15,18.90
2021,07,01,01,16,18.90
2021,07,01,01,17,18.90
2021,07,01,01,18,18.90
2021,07,01,01,19,18.90
2021,07,01,01,20,18.80
2021,07,01,01,21,18.80
2021,07,01,01,22,18.80
2021,07,01,01,23,18.80
2021,07,01,01,24,18.80
2021,07,01,01,25,18.80
2021,07,01,01,26,18.80
2021,07,01,01,27,18.80
2021,07,01,01,28,18.80
2021,07,01,01,29,18.80
2021,07,01,01,30,18.80
2021,07,01,01,31,18.80
2021,07,01,01,32,18.90
2021,07,01,01,33,18.90
2021,07,01,01,34,18.80
2021,07,01,01,35,18.80
2021,07,01,01,36,18.80
2021,07,01,01,37,18.90
2021,07,01,01,38,18.90
2021,07,01,01,39,18.80
2021,07,01,01,40,18.90
2021,07,01,01,41,18.80
2021,07,01,01,42,18.90
2021,07,01,01,43,18.90
2021,07,01,01,44,18.90
2021,07,01,01,45,18.90
2021,07,01,01,46,18.90
2021,07,01,01,47,18.80
2021,07,01,01,48,18.80
2021,07,01,01,49,18.90
2021,07,01,01,50,18.90
2021,07,01,01,51,18.80
2021,07,01,01,52,18.90
2021,07,01,01,53,18.90
2021,07,01,01,54,18.90
2021,07,01,01,55,18.90
2021,07,01,01,56,18.90
2021,07,01,01,57,18.90
2021,07,01,01,58,18.80
2021,07,01,01,59,18.90
2021,07,01,02,00,18.90
2021,07,01,02,01,18.90
2021,07,01,02,02,18.90
2021,07,01,02,03,18.80
2021,07,01,02,04,18.80
2021,07,01,02,05,18.80
2021,07,01,02,06,18.80
2021,07,01,02,07,18.80
2021,07,01,02,08,18.80
2021,07,01,02,09,18.80
2021,07,01,02,10,18.80
2021,07,01,02,11,18.80
2021,07,01,02,12,18.80
2021,07,01,02,13,18.80
2021,07,01,02,14,18.80
2021,07,01,02,15,18.80
2021,07,01,02,16,18.80
2021,07,01,02,17,18.80
2021,07,01,02,18,18.80
2021,07,01,02,19,18.80
2021,07,01,02,20,18.80
2021,07,01,02,21,18.80
2021,07,01,02,22,18.80
2021,07,01,02,23,18.80
2021,07,01,02,24,18.80
2021,07,01,02,25,18.80
2021,07,01,02,26,18.80
2021,07,01,02,27,18.80
2021,07,01,02,28,18.80
2021,07,01,02,29,18.80
2021,07,01,02,30,18.80
2021,07,01,02,31,18.80
2021,07,01,02,32,18.80
2021,07,01,02,33,18.80
2021,07,01,02,34,18.80
2021,07,01,02,35,18.80
2021,07,01,02,36,18.80
2021,07,01,02,37,18.80
2021,07,01,02,38,18.80
2021,07,01,02,39,18.80
2021,07,01,02,40,18.80
2021,07,01,02,41,18.80
2021,07,01,02,42,18.80
2021,07,01,02,43,18.80
2021,07,01,02,44,18.70
2021,07,01,02,45,18.60
2021,07,01,02,46,18.50
2021,07,01,02,47,18.40
2021,07,01,02,48,18.30
2021,07,01,02,49,18.30
2021,07,01,02,50,18.10
2021,07,01,02,51,18.00
2021,07,01,02,52,17.80
2021,07,01,02,53,17.70
2021,07,01,02,54,17.60
2021,07,01,02,55,17.50
2021,07,01,02,56,17.40
2021,07,01,02,57,17.30
2021,07,01,02,58,17.30
2021,07,01,02,59,17.20
2021,07,01,03,00,17.10
2021,07,01,03,01,17.00
2021,07,01,03,02,17.00
2021,07,01,03,03,16.90
2021,07,01,03,04,16.80
2021,07,01,03,05,16.70
2021,07,01,03,06,16.70
2021,07,01,03,07,16.60
2021,07,01,03,08,16.60
2021,07,01,03,09,16.50
2021,07,01,03,10,16.40
2021,07,01,03,11,16.40
2021,07,01,03,12,16.40
2021,07,01,03,13,16.30
2021,07,01,03,14,16.30
2021,07,01,03,15,16.30
2021,07,01,03,16,16.20
2021,07,01,03,17,16.10
2021,07,01,03,18,16.10
2021,07,01,03,19,16.00
2021,07,01,03,20,15.90
2021,07,01,03,21,15.80
2021,07,01,03,22,15.80
2021,07,01,03,23,15.70
2021,07,01,03,24,15.70
2021,07,01,03,25,15.70
2021,07,01,03,26,15.60
2021,07,01,03,27,15.60
2021,07,01,03,28,15.60
2021,07,01,03,29,15.50
2021,07,01,03,30,15.50
2021,07,01,03,31,15.40
2021,07,01,03,32,15.40
2021,07,01,03,33,15.40
2021,07,01,03,34,15.30
2021,07,01,03,35,15.30
2021,07,01,03,36,15.20
2021,07,01,03,37,15.20
2021,07,01,03,38,15.20
2021,07,01,03,39,15.10
2021,07,01,03,40,15.10
2021,07,01,03,41,15.10
2021,07,01,03,42,15.10
2021,07,01,03,43,15.00
2021,07,01,03,44,15.00
2021,07,01,03,45,15.00
2021,07,01,03,46,15.00
2021,07,01,03,47,15.00
2021,07,01,03,48,15.00
2021,07,01,03,49,15.00
2021,07,01,03,50,15.00
2021,07,01,03,51,15.00
2021,07,01,03,52,15.00
2021,07,01,03,53,15.00
2021,07,01,03,54,15.00
2021,07,01,03,55,15.00
2021,07,01,03,56,15.00
2021,07,01,03,57,15.00
2021,07,01,03,58,15.00
2021,07,01,03,59,15.00
2021,07,01,04,00,15.00
2021,07,01,04,01,15.00
2021,07,01,04,02,15.00
2021,07,01,04,03,15.00
2021,07,01,04,04,15.10
2021,07,01,04,05,15.10
2021,07,01,04,06,15.10
2021,07,01,04,07,15.20
2021,07,01,04,08,15.20
2021,07,01,04,09,15.30
2021,07,01,04,10,15.30
2021,07,01,04,11,15.40
2021,07,01,04,12,15.40
2021,07,01,04,13,15.50
2021,07,01,04,14,15.60
2021,07,01,04,15,15.70
2021,07,01,04,16,15.70
2021,07,01,04,17,15.70
2021,07,01,04,18,15.80
2021,07,01,04,19,15.90
2021,07,01,04,20,15.90
2021,07,01,04,21,15.90
2021,07,01,04,22,15.80
2021,07,01,04,23,15.80
2021,07,01,04,24,15.80
2021,07,01,04,25,15.80
2021,07,01,04,26,15.70
2021,07,01,04,27,15.70
2021,07,01,04,28,15.70
2021,07,01,04,29,15.60
2021,07,01,04,30,15.60
2021,07,01,04,31,15.60
2021,07,01,04,32,15.60
2021,07,01,04,33,15.70
2021,07,01,04,34,15.70
2021,07,01,04,35,15.70
2021,07,01,04,36,15.70
2021,07,01,04,37,15.70
2021,07,01,04,38,15.80
2021,07,01,04,39,15.80
2021,07,01,04,40,15.80
2021,07,01,04,41,15.80
2021,07,01,04,42,15.70
2021,07,01,04,43,15.70
2021,07,01,04,44,15.70
2021,07,01,04,45,15.70
2021,07,01,04,46,15.70
2021,07,01,04,47,15.70
2021,07,01,04,48,15.80
2021,07,01,04,49,15.80
2021,07,01,04,50,15.80
2021,07,01,04,51,15.80
2021,07,01,04,52,15.80
2021,07,01,04,53,15.90
2021,07,01,04,54,15.90
2021,07,01,04,55,15.90
2021,07,01,04,56,15.90
2021,07,01,04,57,16.00
2021,07,01,04,58,16.00
2021,07,01,04,59,16.10
2021,07,01,05,00,16.10
2021,07,01,05,01,16.20
2021,07,01,05,02,16.20
2021,07,01,05,03,16.30
2021,07,01,05,04,16.30
2021,07,01,05,05,16.30
2021,07,01,05,06,16.40
2021,07,01,05,07,16.40
2021,07,01,05,08,16.40
2021,07,01,05,09,16.40
2021,07,01,05,10,16.50
2021,07,01,05,11,16.50
2021,07,01,05,12,16.50
2021,07,01,05,13,16.50
2021,07,01,05,14,16.50
2021,07,01,05,15,16.50
2021,07,01,05,16,16.50
2021,07,01,05,17,16.50
2021,07,01,05,18,16.50
2021,07,01,05,19,16.50
2021,07,01,05,20,16.40
2021,07,01,05,21,16.40
2021,07,01,05,22,16.40
2021,07,01,05,23,16.40
2021,07,01,05,24,16.30
2021,07,01,05,25,16.30
2021,07,01,05,26,16.30
2021,07,01,05,27,16.20
2021,07,01,05,28,16.20
2021,07,01,05,29,16.20
2021,07,01,05,30,16.20
2021,07,01,05,31,16.10
2021,07,01,05,32,16.10
2021,07,01,05,33,16.00
2021,07,01,05,34,16.00
2021,07,01,05,35,16.00
2021,07,01,05,36,15.90
2021,07,01,05,37,15.90
2021,07,01,05,38,15.90
2021,07,01,05,39,15.90
2021,07,01,05,40,15.90
2021,07,01,05,41,15.90
2021,07,01,05,42,15.80
2021,07,01,05,43,15.80
2021,07,01,05,44,15.80
2021,07,01,05,45,15.70
2021,07,01,05,46,15.70
2021,07,01,05,47,15.50
2021,07,01,05,48,15.40
2021,07,01,05,49,15.30
2021,07,01,05,50,15.20
2021,07,01,05,51,15.10
2021,07,01,05,52,15.10
2021,07,01,05,53,15.00
2021,07,01,05,54,15.00
2021,07,01,05,55,15.00
2021,07,01,05,56,14.90
2021,07,01,05,57,14.90
2021,07,01,05,58,14.90
2021,07,01,05,59,14.90
2021,07,01,06,00,14.90
2021,07,01,06,01,14.90
2021,07,01,06,02,14.90
2021,07,01,06,03,14.90
2021,07,01,06,04,14.90
2021,07,01,06,05,14.90
2021,07,01,06,06,14.90
2021,07,01,06,07,14.90
2021,07,01,06,08,14.90
2021,07,01,06,09,14.80
2021,07,01,06,10,14.80
2021,07,01,06,11,14.80
2021,07,01,06,12,14.80
2021,07,01,06,13,14.80
2021,07,01,06,14,14.80
2021,07,01,06,15,14.80
2021,07,01,06,16,14.80
2021,07,01,06,17,14.80
2021,07,01,06,18,14.80
2021,07,01,06,19,14.80
2021,07,01,06,20,14.80
2021,07,01,06,21,14.80
2021,07,01,06,22,14.90
2021,07,01,06,23,14.90
2021,07,01,06,24,14.80
2021,07,01,06,25,14.80
2021,07,01,06,26,14.80
2021,07,01,06,27,14.80
2021,07,01,06,28,14.80
2021,07,01,06,29,14.80
2021,07,01,06,30,14.80
2021,07,01,06,31,14.80
2021,07,01,06,32,14.80
2021,07,01,06,33,14.80
2021,07,01,06,34,14.80
2021,07,01,06,35,14.80
2021,07,01,06,36,14.80
2021,07,01,06,37,14.80
2021,07,01,06,38,14.80
2021,07,01,06,39,14.80
2021,07,01,06,40,14.80
2021,07,01,06,41,14.80
2021,07,01,06,42,14.80
2021,07,01,06,43,14.70
2021,07,01,06,44,14.70
2021,07,01,06,45,14.60
2021,07,01,06,46,14.60
2021,07,01,06,47,14.60
2021,07,01,06,48,14.60
2021,07,01,06,49,14.60
2021,07,01,06,50,14.60
2021,07,01,06,51,14.60
2021,07,01,06,52,14.60
2021,07,01,06,53,14.60
2021,07,01,06,54,14.50
2021,07,01,06,55,14.50
2021,07,01,06,56,14.40
2021,07,01,06,57,14.40
2021,07,01,06,58,14.30
2021,07,01,06,59,14.30
2021,07,01,07,00,14.20
2021,07,01,07,01,14.20
2021,07,01,07,02,14.20
2021,07,01,07,03,14.10
2021,07,01,07,04,14.10
2021,07,01,07,05,14.00
2021,07,01,07,06,13.90
2021,07,01,07,07,13.90
2021,07,01,07,08,13.90
2021,07,01,07,09,13.80
2021,07,01,07,10,13.80
2021,07,01,07,11,13.80
2021,07,01,07,12,13.70
2021,07,01,07,13,13.70
2021,07,01,07,14,13.60
2021,07,01,07,15,13.50
2021,07,01,07,16,13.50
2021,07,01,07,17,13.40
2021,07,01,07,18,13.40
2021,07,01,07,19,13.40
2021,07,01,07,20,13.40
2021,07,01,07,21,13.40
2021,07,01,07,22,13.50
2021,07,01,07,23,13.50
2021,07,01,07,24,13.60
2021,07,01,07,25,13.60
2021,07,01,07,26,13.60
2021,07,01,07,27,13.60
2021,07,01,07,28,13.60
2021,07,01,07,29,13.60
2021,07,01,07,30,13.70
2021,07,01,07,31,13.70
2021,07,01,07,32,13.70
2021,07,01,07,33,13.70
2021,07,01,07,34,13.70
2021,07,01,07,35,13.80
2021,07,01,07,36,13.80
2021,07,01,07,37,13.80
2021,07,01,07,38,13.80
2021,07,01,07,39,13.80
2021,07,01,07,40,13.90
2021,07,01,07,41,13.90
2021,07,01,07,42,13.90
2021,07,01,07,43,14.00
2021,07,01,07,44,14.00
2021,07,01,07,45,14.00
2021,07,01,07,46,14.00
2021,07,01,07,47,14.10
2021,07,01,07,48,14.10
2021,07,01,07,49,14.20
2021,07,01,07,50,14.20
2021,07,01,07,51,14.30
2021,07,01,07,52,14.40
2021,07,01,07,53,14.40
2021,07,01,07,54,14.40
2021,07,01,07,55,14.50
2021,07,01,07,56,14.60
2021,07,01,07,57,14.60
2021,07,01,07,58,14.70
2021,07,01,07,59,14.70
2021,07,01,08,00,14.70
2021,07,01,08,01,14.80
2021,07,01,08,02,14.80
2021,07,01,08,03,14.80
2021,07,01,08,04,14.90
2021,07,01,08,05,15.00
2021,07,01,08,06,15.00
2021,07,01,08,07,15.00
2021,07,01,08,08,15.10
2021,07,01,08,09,15.10
2021,07,01,08,10,15.20
2021,07,01,08,11,15.20
2021,07,01,08,12,15.30
2021,07,01,08,13,15.30
2021,07,01,08,14,15.40
2021,07,01,08,15,15.50
2021,07,01,08,16,15.60
2021,07,01,08,17,15.70
2021,07,01,08,18,15.70
2021,07,01,08,19,15.80
2021,07,01,08,20,15.90
2021,07,01,08,21,16.00
2021,07,01,08,22,16.10
2021,07,01,08,23,16.10
2021,07,01,08,24,16.20
2021,07,01,08,25,16.20
2021,07,01,08,26,16.30
2021,07,01,08,27,16.40
2021,07,01,08,28,16.40
2021,07,01,08,29,16.50
2021,07,01,08,30,16.60
2021,07,01,08,31,16.70
2021,07,01,08,32,16.80
2021,07,01,08,33,16.80
2021,07,01,08,34,16.90
2021,07,01,08,35,16.90
2021,07,01,08,36,17.00
2021,07,01,08,37,17.00
2021,07,01,08,38,17.10
2021,07,01,08,39,17.10
2021,07,01,08,40,17.20
2021,07,01,08,41,17.30
2021,07,01,08,42,17.30
2021,07,01,08,43,17.40
2021,07,01,08,44,17.40
2021,07,01,08,45,17.50
2021,07,01,08,46,17.60
2021,07,01,08,47,17.60
2021,07,01,08,48,17.70
2021,07,01,08,49,17.80
2021,07,01,08,50,17.80
2021,07,01,08,51,17.80
2021,07,01,08,52,17.80
2021,07,01,08,53,17.90
2021,07,01,08,54,17.90
2021,07,01,08,55,17.90
2021,07,01,08,56,17.90
2021,07,01,08,57,18.00
2021,07,01,08,58,18.00
2021,07,01,08,59,18.00
2021,07,01,09,00,18.00
2021,07,01,09,01,18.10
2021,07,01,09,02,18.10
2021,07,01,09,03,18.10
2021,07,01,09,04,18.10
2021,07,01,09,05,18.10
2021,07,01,09,06,18.10
2021,07,01,09,07,18.10
2021,07,01,09,08,18.10
2021,07,01,09,09,18.10
2021,07,01,09,10,18.10
2021,07,01,09,11,18.10
2021,07,01,09,12,18.10
2021,07,01,09,13,18.10
2021,07,01,09,14,18.20
2021,07,01,09,15,18.20
2021,07,01,09,16,18.20
2021,07,01,09,17,18.20
2021,07,01,09,18,18.20
2021,07,01,09,19,18.20
2021,07,01,09,20,18.20
2021,07,01,09,21,18.20
2021,07,01,09,22,18.20
2021,07,01,09,23,18.20
2021,07,01,09,24,18.20
2021,07,01,09,25,18.10
2021,07,01,09,26,18.10
2021,07,01,09,27,18.10
2021,07,01,09,28,18.10
2021,07,01,09,29,18.10
2021,07,01,09,30,18.10
2021,07,01,09,31,18.10
2021,07,01,09,32,18.10
2021,07,01,09,33,18.10
2021,07,01,09,34,18.10
2021,07,01,09,35,18.10
2021,07,01,09,36,18.10
2021,07,01,09,37,18.00
2021,07,01,09,38,18.00
2021,07,01,09,39,17.90
2021,07,01,09,40,17.90
2021,07,01,09,41,17.90
2021,07,01,09,42,17.80
2021,07,01,09,43,17.80
2021,07,01,09,44,17.80
2021,07,01,09,45,17.70
2021,07,01,09,46,17.70
2021,07,01,09,47,17.70
2021,07,01,09,48,17.60
2021,07,01,09,49,17.60
2021,07,01,09,50,17.60
2021,07,01,09,51,17.60
2021,07,01,09,52,17.60
2021,07,01,09,53,17.60
2021,07,01,09,54,17.60
2021,07,01,09,55,17.60
2021,07,01,09,56,17.60
2021,07,01,09,57,17.50
2021,07,01,09,58,17.50
2021,07,01,09,59,17.50
2021,07,01,10,00,17.40
2021,07,01,10,01,17.40
2021,07,01,10,02,17.40
2021,07,01,10,03,17.40
2021,07,01,10,04,17.40
2021,07,01,10,05,17.40
2021,07,01,10,06,17.40
2021,07,01,10,07,17.40
2021,07,01,10,08,17.40
2021,07,01,10,09,17.40
2021,07,01,10,10,17.40
2021,07,01,10,11,17.40
2021,07,01,10,12,17.40
2021,07,01,10,13,17.30
2021,07,01,10,14,17.30
2021,07,01,10,15,17.30
2021,07,01,10,16,17.30
2021,07,01,10,17,17.30
2021,07,01,10,18,17.30
2021,07,01,10,19,17.30
2021,07,01,10,20,17.30
2021,07,01,10,21,17.30
2021,07,01,10,22,17.40
2021,07,01,10,23,17.40
2021,07,01,10,24,17.40
2021,07,01,10,25,17.40
2021,07,01,10,26,17.40
2021,07,01,10,27,17.40
2021,07,01,10,28,17.40
2021,07,01,10,29,17.40
2021,07,01,10,30,17.40
2021,07,01,10,31,17.50
2021,07,01,10,32,17.50
2021,07,01,10,33,17.50
2021,07,01,10,34,17.50
2021,07,01,10,35,17.50
2021,07,01,10,36,17.50
2021,07,01,10,37,17.50
2021,07,01,10,38,17.50
2021,07,01,10,39,17.60
2021,07,01,10,40,17.60
2021,07,01,10,41,17.60
2021,07,01,10,42,17.60
2021,07,01,10,43,17.60
2021,07,01,10,44,17.60
2021,07,01,10,45,17.60
2021,07,01,10,46,17.60
2021,07,01,10,47,17.60
2021,07,01,10,48,17.60
2021,07,01,10,49,17.70
2021,07,01,10,50,17.70
2021,07,01,10,51,17.70
2021,07,01,10,52,17.70
2021,07,01,10,53,17.70
2021,07,01,10,54,17.70
2021,07,01,10,55,17.60
2021,07,01,10,56,17.70
2021,07,01,10,57,17.70
2021,07,01,10,58,17.70
2021,07,01,10,59,17.70
2021,07,01,11,00,17.70
2021,07,01,11,01,17.70
2021,07,01,11,02,17.70
2021,07,01,11,03,17.70
2021,07,01,11,04,17.70
2021,07,01,11,05,17.70
2021,07,01,11,06,17.70
2021,07,01,11,07,17.80
2021,07,01,11,08,17.80
2021,07,01,11,09,17.80
2021,07,01,11,10,17.80
2021,07,01,11,11,17.80
2021,07,01,11,12,17.80
2021,07,01,11,13,17.80
2021,07,01,11,14,17.80
2021,07,01,11,15,17.80
2021,07,01,11,16,17.80
2021,07,01,11,17,17.80
2021,07,01,11,18,17.80
2021,07,01,11,19,17.80
2021,07,01,11,20,17.80
2021,07,01,11,21,17.80
2021,07,01,11,22,17.80
2021,07,01,11,23,17.80
2021,07,01,11,24,17.70
2021,07,01,11,25,17.70
2021,07,01,11,26,17.70
2021,07,01,11,27,17.70
2021,07,01,11,28,17.70
2021,07,01,11,29,17.70
2021,07,01,11,30,17.70
2021,07,01,11,31,17.70
2021,07,01,11,32,17.70
2021,07,01,11,33,17.70
2021,07,01,11,34,17.80
2021,07,01,11,35,17.80
2021,07,01,11,36,17.80
2021,07,01,11,37,17.70
2021,07,01,11,38,17.70
2021,07,01,11,39,17.70
2021,07,01,11,40,17.70
2021,07,01,11,41,17.70
2021,07,01,11,42,17.70
2021,07,01,11,43,17.70
2021,07,01,11,44,17.70
2021,07,01,11,45,17.70
2021,07,01,11,46,17.70
2021,07,01,11,47,17.60
2021,07,01,11,48,17.60
2021,07,01,11,49,17.60
2021,07,01,11,50,17.60
2021,07,01,11,51,17.60
2021,07,01,11,52,17.60
2021,07,01,11,53,17.60
2021,07,01,11,54,17.60
2021,07,01,11,55,17.60
2021,07,01,11,56,17.60
2021,07,01,11,57,17.60
2021,07,01,11,58,17.60
2021,07,01,11,59,17.60
2021,07,01,12,00,17.60
2021,07,01,12,01,17.60
2021,07,01,12,02,17.60
2021,07,01,12,03,17.60
2021,07,01,12,04,17.60
2021,07,01,12,05,17.60
2021,07,01,12,06,17.70
2021,07,01,12,07,17.70
2021,07,01,12,08,17.70
2021,07,01,12,09,17.70
2021,07,01,12,10,17.70
2021,07,01,12,11,17.70
2021,07,01,12,12,17.80
2021,07,01,12,13,17.80
2021,07,01,12,14,17.80
2021,07,01,12,15,17.80
2021,07,01,12,16,17.80
2021,07,01,12,17,17.90
2021,07,01,12,18,17.90
2021,07,01,12,19,17.90
2021,07,01,12,20,18.00
2021,07,01,12,21,18.00
2021,07,01,12,22,18.00
2021,07,01,12,23,18.10
2021,07,01,12,24,18.10
2021,07,01,12,25,18.10
2021,07,01,12,26,18.10
2021,07,01,12,27,18.10
2021,07,01,12,28,18.20
2021,07,01,12,29,18.20
2021,07,01,12,30,18.20
2021,07,01,12,31,18.20
2021,07,01,12,32,18.30
2021,07,01,12,33,18.30
2021,07,01,12,34,18.30
2021,07,01,12,35,18.40
2021,07,01,12,36,18.40
2021,07,01,12,37,18.40
2021,07,01,12,38,18.40
2021,07,01,12,39,18.40
2021,07,01,12,40,18.40
2021,07,01,12,41,18.40
2021,07,01,12,42,18.50
2021,07,01,12,43,18.50
2021,07,01,12,44,18.50
2021,07,01,12,45,18.60
2021,07,01,12,46,18.60
2021,07,01,12,47,18.60
2021,07,01,12,48,18.60
2021,07,01,12,49,18.60
2021,07,01,12,50,18.60
2021,07,01,12,51,18.60
2021,07,01,12,52,18.60
2021,07,01,12,53,18.60
2021,07,01,12,54,18.70
2021,07,01,12,55,18.70
2021,07,01,12,56,18.70
2021,07,01,12,57,18.80
2021,07,01,12,58,18.80
2021,07,01,12,59,18.80
2021,07,01,13,00,18.80
2021,07,01,13,01,18.90
2021,07,01,13,02,19.00
2021,07,01,13,03,19.00
2021,07,01,13,04,19.10
2021,07,01,13,05,19.10
2021,07,01,13,06,19.20
2021,07,01,13,07,19.20
2021,07,01,13,08,19.30
2021,07,01,13,09,19.30
2021,07,01,13,10,19.40
2021,07,01,13,11,19.50
2021,07,01,13,12,19.50
2021,07,01,13,13,19.60
2021,07,01,13,14,19.60
2021,07,01,13,15,19.70
2021,07,01,13,16,19.70
2021,07,01,13,17,19.80
2021,07,01,13,18,19.80
2021,07,01,13,19,19.80
2021,07,01,13,20,19.80
2021,07,01,13,21,19.90
2021,07,01,13,22,19.90
2021,07,01,13,23,20.00
2021,07,01,13,24,20.00
2021,07,01,13,25,20.10
2021,07,01,13,26,20.10
2021,07,01,13,27,20.10
2021,07,01,13,28,20.10
2021,07,01,13,29,20.10
2021,07,01,13,30,20.20
2021,07,01,13,31,20.20
2021,07,01,13,32,20.20
2021,07,01,13,33,20.20
2021,07,01,13,34,20.20
2021,07,01,13,35,20.30
2021,07,01,13,36,20.30
2021,07,01,13,37,20.30
2021,07,01,13,38,20.30
2021,07,01,13,39,20.40
2021,07,01,13,40,20.40
2021,07,01,13,41,20.40
2021,07,01,13,42,20.40
2021,07,01,13,43,20.40
2021,07,01,13,44,20.30
2021,07,01,13,45,20.30
2021,07,01,13,46,20.30
2021,07,01,13,47,20.40
2021,07,01,13,48,20.40
2021,07,01,13,49,20.40
2021,07,01,13,50,20.30
2021,07,01,13,51,20.30
2021,07,01,13,52,20.30
2021,07,01,13,53,20.20
2021,07,01,13,54,20.10
2021,07,01,13,55,20.10
2021,07,01,13,56,20.00
2021,07,01,13,57,20.00
2021,07,01,13,58,19.90
2021,07,01,13,59,19.90
2021,07,01,14,00,19.90
2021,07,01,14,01,19.80
2021,07,01,14,02,19.80
2021,07,01,14,03,19.80
2021,07,01,14,04,19.70
2021,07,01,14,05,19.60
2021,07,01,14,06,19.50
2021,07,01,14,07,19.40
2021,07,01,14,08,19.30
2021,07,01,14,09,19.20
2021,07,01,14,10,19.10
2021,07,01,14,11,19.10
2021,07,01,14,12,19.10
2021,07,01,14,13,19.10
2021,07,01,14,14,19.10
2021,07,01,14,15,19.10
2021,07,01,14,16,19.20
2021,07,01,14,17,19.20
2021,07,01,14,18,19.30
2021,07,01,14,19,19.30
2021,07,01,14,20,19.40
2021,07,01,14,21,19.40
2021,07,01,14,22,19.40
2021,07,01,14,23,19.40
2021,07,01,14,24,19.40
2021,07,01,14,25,19.50
2021,07,01,14,26,19.50
2021,07,01,14,27,19.60
2021,07,01,14,28,19.60
2021,07,01,14,29,19.60
2021,07,01,14,30,19.70
2021,07,01,14,31,19.70
2021,07,01,14,32,19.70
2021,07,01,14,33,19.70
2021,07,01,14,34,19.80
2021,07,01,14,35,19.70
2021,07,01,14,36,19.70
2021,07,01,14,37,19.60
2021,07,01,14,38,19.60
2021,07,01,14,39,19.50
2021,07,01,14,40,19.40
2021,07,01,14,41,19.30
2021,07,01,14,42,19.30
2021,07,01,14,43,19.20
2021,07,01,14,44,19.20
2021,07,01,14,45,19.20
2021,07,01,14,46,19.20
2021,07,01,14,47,19.20
2021,07,01,14,48,19.20
2021,07,01,14,49,19.20
2021,07,01,14,50,19.20
2021,07,01,14,51,19.20
2021,07,01,14,52,19.20
2021,07,01,14,53,19.20
2021,07,01,14,54,19.20
2021,07,01,14,55,19.10
2021,07,01,14,56,19.10
2021,07,01,14,57,19.10
2021,07,01,14,58,19.00
2021,07,01,14,59,19.00
2021,07,01,15,00,19.00
2021,07,01,15,01,19.10
2021,07,01,15,02,19.10
2021,07,01,15,03,19.10
2021,07,01,15,04,19.10
2021,07,01,15,05,19.10
2021,07,01,15,06,19.10
2021,07,01,15,07,19.10
2021,07,01,15,08,19.10
2021,07,01,15,09,19.10
2021,07,01,15,10,19.20
2021,07,01,15,11,19.20
2021,07,01,15,12,19.30
2021,07,01,15,13,19.30
2021,07,01,15,14,19.40
2021,07,01,15,15,19.40
2021,07,01,15,16,19.40
2021,07,01,15,17,19.40
2021,07,01,15,18,19.30
2021,07,01,15,19,19.30
2021,07,01,15,20,19.20
2021,07,01,15,21,19.10
2021,07,01,15,22,19.00
2021,07,01,15,23,19.00
2021,07,01,15,24,18.90
2021,07,01,15,25,18.90
2021,07,01,15,26,19.00
2021,07,01,15,27,19.00
2021,07,01,15,28,19.10
2021,07,01,15,29,19.10
2021,07,01,15,30,19.10
2021,07,01,15,31,19.20
2021,07,01,15,32,19.20
2021,07,01,15,33,19.30
2021,07,01,15,34,19.40
2021,07,01,15,35,19.40
2021,07,01,15,36,19.40
2021,07,01,15,37,19.50
2021,07,01,15,38,19.50
2021,07,01,15,39,19.50
2021,07,01,15,40,19.60
2021,07,01,15,41,19.60
2021,07,01,15,42,19.60
2021,07,01,15,43,19.60
2021,07,01,15,44,19.60
2021,07,01,15,45,19.60
2021,07,01,15,46,19.70
2021,07,01,15,47,19.70
2021,07,01,15,48,19.80
2021,07,01,15,49,19.80
2021,07,01,15,50,19.80
2021,07,01,15,51,19.80
2021,07,01,15,52,19.80
2021,07,01,15,53,19.80
2021,07,01,15,54,19.90
2021,07,01,15,55,19.90
2021,07,01,15,56,19.90
2021,07,01,15,57,19.90
2021,07,01,15,58,19.90
2021,07,01,15,59,19.90
2021,07,01,16,00,19.80
2021,07,01,16,01,19.80
2021,07,01,16,02,19.70
2021,07,01,16,03,19.60
2021,07,01,16,04,19.60
2021,07,01,16,05,19.60
2021,07,01,16,06,19.50
2021,07,01,16,07,19.50
2021,07,01,16,08,19.50
2021,07,01,16,09,19.40
2021,07,01,16,10,19.40
2021,07,01,16,11,19.30
2021,07,01,16,12,19.30
2021,07,01,16,13,19.30
2021,07,01,16,14,19.30
2021,07,01,16,15,19.30
2021,07,01,16,16,19.20
2021,07,01,16,17,19.20
2021,07,01,16,18,19.20
2021,07,01,16,19,19.20
2021,07,01,16,20,19.20
2021,07,01,16,21,19.20
2021,07,01,16,22,19.20
2021,07,01,16,23,19.20
2021,07,01,16,24,19.20
2021,07,01,16,25,19.20
2021,07,01,16,26,19.20
2021,07,01,16,27,19.20
2021,07,01,16,28,19.20
2021,07,01,16,29,19.20
2021,07,01,16,30,19.30
2021,07,01,16,31,19.30
2021,07,01,16,32,19.30
2021,07,01,16,33,19.30
2021,07,01,16,34,19.30
2021,07,01,16,35,19.30
2021,07,01,16,36,19.30
2021,07,01,16,37,19.30
2021,07,01,16,38,19.30
2021,07,01,16,39,19.30
2021,07,01,16,40,19.30
2021,07,01,16,41,19.30
2021,07,01,16,42,19.30
2021,07,01,16,43,19.30
2021,07,01,16,44,19.30
2021,07,01,16,45,19.30
2021,07,01,16,46,19.30
2021,07,01,16,47,19.30
2021,07,01,16,48,19.30
2021,07,01,16,49,19.20
2021,07,01,16,50,19.20
2021,07,01,16,51,19.10
2021,07,01,16,52,19.10
2021,07,01,16,53,19.00
2021,07,01,16,54,18.90
2021,07,01,16,55,18.90
2021,07,01,16,56,18.90
2021,07,01,16,57,18.90
2021,07,01,16,58,19.00
2021,07,01,16,59,19.00
2021,07,01,17,00,19.10
2021,07,01,17,01,19.20
2021,07,01,17,02,19.20
2021,07,01,17,03,19.30
2021,07,01,17,04,19.40
2021,07,01,17,05,19.50
2021,07,01,17,06,19.50
2021,07,01,17,07,19.60
2021,07,01,17,08,19.70
2021,07,01,17,09,19.70
2021,07,01,17,10,19.80
2021,07,01,17,11,19.80
2021,07,01,17,12,19.80
2021,07,01,17,13,19.80
2021,07,01,17,14,19.80
2021,07,01,17,15,19.80
2021,07,01,17,16,19.70
2021,07,01,17,17,19.70
2021,07,01,17,18,19.60
2021,07,01,17,19,19.50